Hauptseite
METAR-TAF:

METAR-TAF

Flughäfen :

Diepholz, Deutschland

Fliegerhorst Diepholz

Breite: 52-35N, Länge: 008-21E, Höhe: 39 m

Beobachtung

Neuester Wetterbericht von vor 11 Stunden und 20 Minuten, um 13:20 UTC
Wind 6 kt aus West/Nordwest
Temperatur 9°C
Luftfeuchtigkeit 49%
Luftdruck 1015 hPa
Sichtweite 10 km oder mehr
Durchbrochene Bewölkung in der Höhe von 4800 ft, Towering cumulus.
Schauer in der Nähe

METAR: ETND 271320Z 30006KT 9999 VCSH BKN048TCU 09/M01 Q1015 BLU

Zeit: 02:40 (00:40 UTC)


TAF: fehlend

Wetterbeobachtungen und Prognosen von mehr als 4000 Flughäfen (METAR und TAF Bericht).

Die verfügbaren Stationen werden durch gelbe und rote Markierungen auf der Karte dargestellt.

Führen Sie die Maus auf sie, um den Namen der Station zu sehen.

Darauf klicken, um die Beobachtung von Wetterbeobachtungen und Prognosen zu sehen.

Um die Karte zu ändern : klicken Sie auf den grünen Tasten mit einem schwarzen Kreuz Zum Vergrößern, auf den grünen Button mit einem Gedankenstrich zu verkleinern, oder auf die grünen Pfeile für benachbarte Karten.


METAR-TAF: